Location: Aula-Vintri
(58.3875°N, 22.4322°E)
Time: 01:52:48
(UTC+00:00)

Cosmos 1725 Rocket - Pass Details

Date: 13 October 2019
Orbit: 963 x 990 km, 82.9° (Epoch: 21 November)

Event Time Altitude Azimuth Distance (km) Brightness Sun altitude
Rises 17:44:00 0° 346° (NNW) 3,680 7.4 -18.0°
Reaches altitude 10° 17:46:41 10° 354° (N) 2,733 6.6 -18.4°
Maximum altitude 17:52:35 41° 64° (ENE) 1,382 4.4 -19.1°
Enters shadow 17:54:32 33° 104° (ESE) 1,587 4.5 -19.4°
